Vertical_Velocity
-0 3 0 1 3 2 4 -3 2 1 -0 3 -3 0 3 4 17 -9 -19 14 -15 -6 9 -14 -2 -0 14 6 -5 -18 31 16 7 7 3 -3 1 -7 7 -9 -7 -2 -1 -1 4 6 -2 -0 9 8 -24 -1 -3 -2
4 1 -1 -1 1 -0 2 -1 1 2 1 -6 10 0 6 -7 9 -8 8 11 -1 10 11 -9 -11 11 24 -34 -11 5 -25 -4 -7 5 4 2 2 1 -0 -2 7 4 -0 -2 -3 -8 -5 -4 -9 -9 2 3 1 2
-1 -0 1 2 2 -1 -3 -5 -3 3 2 -2 4 2 3 11 -7 -2 7 -9 5 -9 3 -3 -3 -4 -0 -9 9 20 -1 8 6 -10 -3 -3 -0 0 -1 -8 4 0 -0 1 11 -9 -4 0 -2 6 2 -0 3 -2
2 1 1 -1 3 4 0 -2 -0 2 1 -0 -2 0 1 17 1 -1 -6 -0 4 -7 2 6 -5 -0 -15 7 -4 5 -11 21 7 -2 1 -1 -0 1 -3 -7 1 -8 3 -3 -8 -4 -1 -6 -3 -3 3 -1 2 -3
3 2 -1 -2 -2 0 5 2 2 -7 3 3 -4 14 2 1 -1 12 14 -16 -12 -15 -3 -1 -1 4 -9 -11 -3 7 3 13 -0 7 3 -3 -0 5 -0 3 1 -3 -9 1 -9 -7 6 -8 12 9 1 -4 -1 2
3 1 -1 1 -2 -2 4 2 1 3 0 5 24 10 8 -4 -1 -28 -8 13 -6 4 3 1 -8 -10 -18 3 0 -2 2 -0 8 -5 -4 -3 -7 14 3 -0 -14 0 -0 2 -10 5 -3 4 -1 -4 7 3 -1 -1
7 -6 3 2 -3 0 -4 4 4 3 1 5 -1 2 5 12 5 -11 0 1 -13 -8 5 -2 -2 1 -0 -1 1 1 -0 -5 3 -4 4 1 3 -3 3 1 -8 3 3 -0 -0 5 -5 2 -6 -3 -1 2 0 2
2 9 3 -5 -1 7 4 -0 7 14 15 5 3 8 2 -5 -2 1 -7 6 3 1 -3 -1 -4 1 10 3 3 -2 1 6 -0 -4 2 2 2 2 2 -5 -5 -12 4 -3 3 1 3 -1 -1 0 -1 -2 -1 2
1 0 5 -1 -1 -2 7 3 -2 -1 -1 -1 2 2 -4 -5 -8 11 -7 4 -0 13 -3 1 2 -0 2 6 2 5 5 4 -3 1 -1 12 -1 -1 -0 2 5 4 4 0 1 -1 0 0 3 -1 3 1 -0 -1
-3 2 0 3 6 4 -0 -2 5 1 -2 -2 -13 -8 0 1 -2 -8 3 -1 -1 -1 -3 0 0 -2 5 -1 1 -3 2 -1 1 -8 2 6 -6 10 2 5 0 -0 1 2 3 0 -0 -0 -1 0 -1 1 -2 -1
1 0 0 2 2 2 0 0 -1 -3 -4 -0 1 5 8 9 -2 -3 -1 -0 2 3 1 -6 -4 -1 -9 -1 -0 -4 -1 -1 1 -2 2 0 4 1 -2 -1 0 5 4 4 3 3 1 1 1 2 3 1 6 -1
-1 -3 -4 -3 -4 -1 2 6 1 7 2 -1 6 2 -5 -14 3 -2 -1 2 2 -1 2 1 -1 5 -1 2 -3 5 -1 1 0 -0 0 0 4 1 -2 -1 -1 0 -2 -1 4 5 7 -0 5 7 7 4 3 1
-5 3 3 2 1 5 -2 -9 -3 1 5 10 -3 3 10 -0 1 -2 1 1 1 1 -0 -1 -0 0 -1 -4 -1 -1 -0 2 0 -4 2 5 4 -2 0 -0 -0 1 3 -0 -1 -0 1 2 4 5 -0 4 -3 -1
6 -1 -1 5 -1 -9 9 -3 7 -4 -4 -2 0 -1 2 0 1 3 3 2 1 2 3 3 1 -1 1 -3 1 -3 4 -1 -2 -2 5 3 4 3 3 3 1 3 2 2 3 2 2 3 5 6 5 7 7 3
-2 -1 3 -4 7 -1 -3 -7 -4 -9 -5 -3 -4 2 0 6 -0 1 2 2 1 1 -3 -2 -1 -4 -0 -2 0 -1 -2 1 3 5 4 5 3 3 2 3 3 3 6 1 3 -0 1 3 5 3 4 5 -1 4
-5 -2 9 4 -4 -15 -5 0 -4 -4 -5 -5 -9 -4 -6 -2 -1 -5 -0 0 -0 0 1 -1 -0 -1 1 0 -5 3 -3 4 6 2 4 5 2 4 4 3 4 5 4 6 2 2 2 -1 -4 2 5 3 0 1
4 -9 -4 -1 2 -3 -4 -5 -1 -8 -2 -3 2 -3 1 3 7 2 -0 -3 1 2 1 -1 -4 7 0 -3 -1 1 3 5 4 3 2 1 5 5 5 4 4 4 2 3 2 1 -1 3 4 0 -7 5 1 1
-0 -2 2 7 1 -3 -9 -5 -4 -4 -1 -2 -0 5 -3 2 2 1 5 3 3 -0 -2 3 -1 -4 1 -0 2 3 2 2 1 1 6 6 3 3 3 2 3 2 0 0 2 4 4 0 -5 -2 -0 2 -1 -1
-4 3 8 4 2 -2 -4 -2 -1 -3 2 2 -3 -7 -1 6 5 6 3 1 -4 -0 -1 -3 -5 1 3 2 3 2 6 -1 1 4 2 3 3 3 3 2 1 0 -0 0 -0 -3 -1 1 1 2 2 0 -2 2
5 1 1 -7 -4 -2 -3 -3 -0 -4 1 -1 7 1 -0 7 8 2 2 4 -2 -5 -7 -3 3 8 4 5 1 1 9 5 -2 -3 -0 -0 1 1 -1 0 0 2 -0 -0 -1 1 -0 -3 -1 -1 -1 0 -0 -1
2 3 2 -7 -15 -4 -3 2 -3 -4 -2 0 4 -6 7 -5 -8 -5 -0 -5 -23 1 0 6 4 4 2 4 3 2 -0 -2 -0 1 3 0 3 1 1 0 1 1 -1 0 0 0 0 -0 1 -0 0 0 -0 -1
-7 -5 -8 -1 -5 -5 -4 -4 2 4 -3 3 -4 -2 -1 -4 0 0 2 -17 3 8 5 2 6 2 0 -0 3 1 2 -1 -1 -2 -1 -0 -2 -1 -1 1 -1 -2 -2 -1 -1 -1 -1 -0 1 0 -1 -1 -1 -3
3 2 -0 -0 -4 -2 1 -0 -4 -1 -2 2 -3 -3 -1 -1 4 1 -3 1 8 8 4 -0 2 4 1 4 -0 -1 1 1 0 0 -0 -1 0 0 -1 -1 -2 -2 -1 -1 -1 -0 -2 -1 -1 -2 -1 -2 -1 0
0 -5 -3 -2 -3 3 -1 -2 -1 -1 -2 -2 -1 -0 -1 2 -1 -6 1 1 6 1 -2 4 7 1 -1 -3 -2 1 3 1 -1 -2 1 -1 -2 -2 -2 -1 -0 -0 0 0 -0 -1 -1 -0 -0 -0 -1 -0 -2 -2
-9 -3 0 2 0 -3 -1 -0 -0 -3 0 1 -1 1 2 -0 -2 -1 1 4 1 -1 1 -0 1 1 -1 2 2 -0 -0 1 0 -1 0 3 3 3 0 -2 -1 -0 0 1 -1 -0 -1 -2 -3 -3 -3 -3 -2 -1
-5 2 -1 2 2 -3 2 -1 0 1 -0 -0 1 1 -1 -1 -2 2 3 4 1 1 0 3 2 -1 -1 0 0 -1 -0 2 1 -1 -0 -0 -1 -0 0 -1 1 -2 -2 -2 -2 -1 -1 -1 -1 -1 -1 0 -1 -1
-2 2 1 -3 2 -1 -0 0 -1 -3 -1 0 1 -0 -1 -1 1 5 0 3 1 -1 -2 0 2 -0 1 0 -0 -1 -1 -2 -3 -2 -1 -2 -2 -2 -2 -1 -1 -1 -2 -2 -2 -2 -1 -1 -1 -1 -1 -1 -2 -2
3 -1 -2 3 -2 1 -1 -1 -1 1 1 0 -1 -1 0 2 4 6 1 -0 -0 -1 -2 -3 -2 -2 -1 -1 -1 -1 -2 -2 -2 -3 -4 -5 -3 -3 -3 -2 -2 -1 -1 -1 -1 -1 -2 -1 -2 -2 -2 -2 -3 -3
-1 -0 -3 -0 -0 -2 1 2 2 2 -1 3 -1 1 3 -1 4 0 2 -0 -0 -1 -1 -1 -2 -2 -1 -2 -2 -2 -2 -3 0 -1 -1 0 2 -2 -3 -2 -2 -2 -2 -2 -3 -2 -2 -2 -2 -2 -2 -2 -1 -1
2 2 -2 -1 -2 2 6 4 1 2 -2 -3 -6 0 -1 -1 -4 0 0 0 3 2 0 -1 -1 1 -0 1 -2 -2 -2 -2 -1 -2 1 1 -1 -2 -1 -1 -1 -1 -1 -1 -2 -2 -3 -2 -2 -1 -0 -0 -0 -0
2 0 -3 -1 1 5 1 1 -2 -1 -3 -3 1 -4 0 -1 -1 -1 -2 -1 -1 -1 -2 -1 -1 -1 -1 -1 0 1 0 -2 -1 -1 -1 -1 -1 -1 -1 -1 -1 -1 -1 -1 -0 -0 -0 -0 -0 -1 -0 -0 -0 -0
-2 1 -3 -0 3 -0 -0 3 -0 -1 1 0 -1 -2 -2 1 2 -0 -1 -1 -1 1 -1 -1 -0 -2 -1 -1 -1 -1 0 -0 -1 -1 -1 -1 -1 -0 -0 0 0 0 -0 -1 -1 -1 -0 0 0 0 0 0 0 0
0 -3 -1 -3 -1 1 -1 -1 -0 -0 -0 0 1 -1 -1 2 3 0 -0 -1 -2 -1 -1 -2 -2 -1 -1 -1 -1 -1 -1 -1 -1 -0 -0 -0 0 0 0 -0 -1 -1 -0 -0 -0 -0 -0 0 1 1 1 0 0 0
Height
1246 1240 1232 1224 1216 1211 1209 1205 1203 1213 1227 1243 1257 1271 1285 1297 1309 1323 1334 1347 1355 1363 1363 1368 1367 1368 1373 1379 1384 1393 1396 1405 1411 1411 1407 1403 1411 1405 1402 1401 1419 1415 1412 1415 1411 1412 1414 1388 1392 1400 1393 1392 1395 1396
1244 1238 1229 1221 1211 1207 1208 1205 1202 1210 1228 1244 1258 1272 1285 1298 1309 1322 1335 1343 1352 1360 1360 1367 1366 1367 1372 1378 1383 1385 1386 1396 1397 1400 1398 1397 1402 1407 1401 1401 1399 1414 1401 1396 1392 1390 1389 1387 1387 1389 1389 1388 1391 1394
1242 1238 1232 1225 1219 1214 1215 1217 1220 1227 1238 1252 1263 1276 1290 1302 1312 1325 1333 1344 1355 1361 1365 1366 1369 1372 1373 1376 1380 1380 1387 1385 1393 1396 1395 1397 1400 1400 1407 1400 1393 1394 1391 1394 1391 1386 1383 1383 1385 1385 1386 1387 1389 1390
1241 1240 1236 1231 1228 1225 1226 1228 1234 1241 1249 1261 1270 1280 1288 1302 1316 1326 1335 1344 1354 1362 1364 1366 1368 1371 1373 1375 1380 1383 1386 1390 1390 1395 1394 1393 1395 1391 1395 1394 1393 1391 1389 1391 1386 1384 1384 1384 1384 1383 1384 1387 1388 1389
1245 1243 1241 1239 1238 1237 1238 1240 1245 1252 1260 1268 1276 1284 1294 1308 1322 1331 1338 1348 1357 1363 1359 1362 1366 1368 1370 1375 1377 1381 1383 1386 1388 1392 1392 1393 1389 1391 1390 1390 1384 1385 1384 1388 1382 1379 1380 1378 1378 1378 1380 1381 1384 1386
1250 1248 1247 1247 1247 1248 1249 1253 1257 1263 1270 1276 1282 1293 1305 1317 1324 1333 1346 1353 1355 1359 1360 1361 1363 1363 1367 1373 1376 1379 1382 1384 1384 1387 1390 1387 1385 1387 1387 1380 1379 1379 1380 1380 1379 1381 1380 1380 1378 1378 1376 1377 1380 1383
1258 1255 1254 1254 1255 1256 1258 1262 1267 1273 1280 1286 1295 1305 1316 1325 1333 1341 1346 1349 1354 1360 1362 1361 1362 1361 1363 1369 1372 1377 1381 1382 1386 1385 1383 1383 1382 1386 1382 1379 1376 1374 1375 1376 1377 1378 1377 1377 1377 1377 1376 1376 1378 1381
1267 1265 1264 1263 1265 1267 1269 1272 1276 1282 1289 1297 1307 1316 1322 1330 1339 1345 1346 1350 1357 1363 1365 1367 1365 1361 1357 1361 1367 1373 1378 1383 1384 1385 1382 1380 1381 1384 1375 1371 1373 1376 1374 1374 1375 1376 1377 1376 1376 1374 1374 1374 1377 1380
1277 1276 1275 1276 1277 1279 1282 1284 1289 1294 1301 1308 1316 1323 1331 1339 1345 1348 1351 1355 1358 1364 1365 1367 1361 1348 1352 1354 1362 1371 1374 1378 1380 1379 1380 1380 1378 1378 1374 1373 1373 1374 1375 1375 1374 1374 1374 1374 1374 1374 1374 1372 1377 1380
1286 1287 1287 1288 1289 1292 1295 1299 1302 1307 1312 1318 1326 1333 1339 1343 1346 1350 1357 1360 1361 1362 1362 1360 1358 1350 1344 1352 1358 1366 1368 1372 1374 1374 1375 1373 1370 1379 1382 1381 1380 1379 1377 1375 1374 1372 1372 1372 1373 1373 1377 1372 1378 1381
1295 1296 1297 1298 1300 1302 1305 1309 1313 1318 1323 1328 1331 1336 1342 1347 1350 1352 1354 1356 1357 1358 1353 1350 1349 1347 1345 1345 1351 1360 1365 1365 1363 1366 1367 1364 1369 1390 1387 1384 1382 1380 1378 1377 1375 1373 1369 1370 1371 1374 1373 1375 1375 1379
1303 1304 1306 1309 1312 1315 1318 1322 1327 1330 1330 1332 1334 1339 1345 1348 1347 1349 1351 1352 1351 1344 1343 1344 1342 1339 1341 1342 1344 1352 1352 1357 1353 1362 1363 1374 1396 1395 1390 1386 1382 1379 1377 1377 1376 1375 1371 1371 1374 1374 1375 1376 1377 1380
1310 1311 1313 1316 1321 1325 1329 1330 1332 1332 1333 1336 1337 1340 1340 1342 1342 1337 1343 1346 1344 1346 1347 1347 1346 1346 1345 1345 1348 1348 1346 1353 1360 1367 1381 1395 1398 1395 1391 1387 1384 1382 1379 1377 1376 1376 1373 1372 1375 1377 1377 1379 1382 1389
1316 1319 1322 1326 1329 1332 1332 1334 1334 1336 1335 1336 1337 1341 1342 1341 1350 1356 1354 1351 1352 1350 1347 1345 1345 1348 1350 1350 1354 1350 1363 1362 1363 1371 1390 1402 1402 1399 1394 1391 1386 1384 1381 1380 1379 1379 1379 1379 1383 1382 1385 1390 1390 1394
1323 1326 1330 1335 1336 1338 1339 1340 1338 1337 1338 1344 1346 1351 1354 1361 1362 1360 1360 1359 1356 1351 1350 1351 1352 1353 1356 1358 1364 1362 1364 1377 1389 1398 1408 1408 1405 1401 1398 1395 1392 1390 1388 1385 1386 1386 1388 1391 1391 1392 1396 1397 1402 1407
1330 1334 1338 1342 1344 1346 1345 1344 1342 1344 1351 1359 1369 1368 1367 1367 1368 1363 1363 1361 1358 1356 1355 1356 1356 1359 1366 1369 1375 1382 1383 1399 1411 1416 1417 1413 1410 1407 1404 1402 1400 1399 1398 1395 1395 1398 1399 1401 1404 1406 1406 1408 1412 1415
1336 1338 1342 1344 1346 1347 1347 1347 1349 1357 1367 1373 1380 1382 1377 1369 1376 1374 1368 1364 1360 1359 1359 1362 1366 1375 1373 1381 1396 1407 1414 1421 1423 1423 1422 1419 1416 1414 1412 1410 1409 1408 1407 1407 1407 1409 1411 1413 1414 1414 1415 1419 1421 1423
1340 1343 1346 1347 1348 1349 1350 1353 1361 1372 1382 1387 1385 1387 1385 1382 1376 1370 1367 1362 1362 1364 1368 1377 1381 1389 1395 1400 1415 1425 1426 1427 1428 1428 1427 1426 1424 1421 1420 1419 1419 1418 1417 1417 1417 1418 1419 1419 1420 1423 1425 1427 1428 1429
1343 1345 1348 1349 1350 1351 1357 1365 1370 1380 1389 1390 1392 1390 1388 1385 1381 1375 1372 1370 1369 1372 1377 1388 1400 1410 1419 1426 1428 1429 1429 1430 1432 1433 1432 1430 1429 1429 1428 1427 1426 1425 1425 1426 1426 1426 1427 1427 1429 1430 1432 1432 1433 1435
1345 1347 1350 1351 1351 1356 1364 1373 1375 1381 1388 1393 1393 1393 1393 1392 1391 1387 1381 1379 1377 1380 1394 1413 1426 1433 1433 1433 1433 1434 1434 1435 1436 1437 1437 1437 1436 1434 1434 1434 1434 1435 1434 1433 1433 1434 1434 1434 1435 1435 1436 1436 1437 1437
1350 1352 1354 1354 1356 1360 1370 1377 1382 1387 1391 1392 1395 1395 1396 1397 1393 1391 1390 1393 1390 1407 1423 1434 1437 1438 1438 1437 1437 1437 1437 1438 1440 1441 1443 1443 1443 1442 1441 1441 1441 1440 1439 1439 1439 1439 1438 1439 1440 1440 1440 1438 1438 1438
1354 1356 1358 1359 1365 1371 1380 1384 1386 1388 1392 1395 1396 1398 1401 1404 1406 1408 1413 1411 1426 1438 1440 1442 1443 1443 1443 1443 1443 1443 1444 1445 1445 1446 1447 1447 1447 1447 1447 1447 1446 1444 1445 1445 1445 1444 1444 1443 1444 1442 1441 1442 1441 1440
1358 1359 1361 1364 1370 1379 1391 1390 1391 1394 1396 1399 1402 1406 1410 1415 1420 1421 1428 1439 1448 1450 1450 1450 1450 1450 1449 1450 1449 1450 1451 1452 1452 1452 1452 1451 1452 1451 1451 1450 1451 1452 1451 1451 1450 1449 1447 1446 1445 1444 1444 1443 1443 1442
1360 1361 1365 1370 1377 1387 1391 1395 1397 1399 1403 1405 1410 1417 1423 1425 1429 1434 1444 1453 1457 1456 1455 1455 1455 1456 1456 1456 1456 1457 1457 1457 1456 1457 1457 1457 1456 1456 1456 1456 1455 1454 1454 1454 1452 1451 1449 1448 1447 1446 1444 1443 1441 1441
1363 1376 1377 1381 1385 1389 1394 1400 1403 1404 1410 1413 1418 1424 1430 1431 1435 1443 1450 1458 1460 1460 1460 1460 1460 1461 1461 1462 1462 1461 1461 1461 1461 1460 1461 1462 1461 1461 1460 1458 1455 1454 1453 1453 1452 1451 1449 1448 1447 1446 1445 1444 1442 1441
1376 1387 1387 1390 1394 1395 1400 1404 1408 1413 1416 1420 1427 1432 1433 1435 1440 1447 1455 1460 1462 1462 1463 1463 1464 1464 1464 1465 1466 1465 1465 1465 1465 1463 1462 1461 1461 1461 1461 1460 1459 1456 1454 1452 1452 1452 1451 1449 1448 1447 1446 1445 1443 1441
1385 1392 1397 1399 1401 1402 1408 1413 1416 1418 1421 1425 1429 1432 1433 1438 1446 1457 1461 1463 1464 1464 1464 1465 1466 1467 1468 1467 1467 1466 1466 1466 1465 1465 1464 1463 1461 1460 1460 1459 1458 1457 1455 1454 1452 1451 1451 1449 1448 1447 1446 1444 1443 1440
1396 1400 1401 1406 1407 1409 1413 1417 1421 1426 1431 1434 1434 1439 1441 1445 1453 1460 1462 1464 1465 1465 1465 1465 1466 1468 1468 1468 1469 1469 1468 1467 1466 1466 1464 1463 1462 1461 1460 1459 1458 1456 1455 1453 1452 1451 1450 1449 1448 1446 1445 1443 1441 1439
1402 1406 1407 1412 1413 1420 1427 1428 1433 1439 1441 1439 1439 1446 1453 1458 1460 1462 1464 1465 1466 1467 1467 1467 1468 1468 1468 1469 1469 1469 1469 1468 1469 1467 1467 1467 1466 1463 1460 1458 1457 1455 1454 1453 1452 1450 1449 1448 1446 1445 1443 1441 1440 1438
1408 1408 1410 1418 1422 1432 1439 1439 1441 1443 1443 1443 1446 1453 1457 1460 1461 1463 1465 1467 1468 1469 1469 1469 1469 1471 1471 1472 1471 1469 1468 1467 1466 1466 1467 1466 1464 1461 1459 1458 1456 1454 1453 1452 1451 1449 1448 1446 1445 1443 1442 1440 1439 1436
1410 1411 1416 1425 1435 1444 1444 1444 1445 1447 1448 1449 1452 1454 1457 1461 1464 1464 1465 1466 1466 1467 1469 1469 1470 1470 1471 1471 1471 1470 1469 1466 1465 1464 1463 1462 1461 1460 1458 1456 1455 1453 1452 1450 1449 1447 1446 1445 1443 1442 1441 1438 1436 1434
1415 1418 1422 1431 1442 1446 1445 1447 1448 1450 1453 1454 1457 1458 1461 1462 1464 1465 1465 1466 1468 1469 1469 1469 1470 1470 1469 1469 1468 1468 1467 1466 1464 1463 1462 1461 1460 1458 1456 1454 1452 1451 1450 1448 1447 1445 1444 1442 1441 1439 1437 1435 1433 1430
1424 1425 1428 1434 1442 1445 1448 1448 1450 1454 1455 1457 1459 1460 1461 1462 1464 1465 1464 1465 1467 1468 1468 1468 1468 1468 1468 1468 1467 1466 1465 1464 1463 1462 1461 1459 1458 1456 1454 1452 1450 1449 1447 1446 1444 1442 1441 1439 1437 1435 1433 1431 1428 1426